Weather History for KAGC - February, 2014

Change the Weather History Date:

Thursday, February 27, 2014

  Actual Average Record
Temperature  
Mean Temperature 16 °F -  
Max Temperature 23 °F 40 °F 66 °F (1997)
Min Temperature 7 °F 25 °F 3 °F (2015)
Degree Days  
Heating Degree Days 50    
Moisture  
Dew Point 4 °F    
Average Humidity 57    
Maximum Humidity 80    
Minimum Humidity 42    
Precipitation  
Precipitation 0.01 in - - ()
Sea Level Pressure  
Sea Level Pressure 29.84 in    
Wind  
Wind Speed 14 mph (WNW)    
Max Wind Speed 25 mph    
Max Gust Speed 43 mph    
Visibility 7 miles    
Events Snow    
Averages and records for this station are not official NWS values.
T = Trace of Precipitation, MM = Missing Value Source: NWS Daily Summary

Daily Weather History Graph

Daily Weather History Graph

Search for Another Location

Airport or City:

Trip Planner

Search our weather history database for the weather conditions in past years. The results will help you decide how hot, cold, wet, or windy it might be!

Date:

Astronomy

Feb. 27, 2014 Rise Set
Actual Time 6:56 AM EST 6:09 PM EST
Civil Twilight 6:28 AM EST 6:36 PM EST
Nautical Twilight 5:57 AM EST 7:07 PM EST
Astronomical Twilight 5:25 AM EST 7:39 PM EST
Moon 5:27 AM EST (2/27) 4:32 PM EST (2/27)
Length of Visible Light 12h 07m
Length of Day
11h 12m
Waning Crescent, 4% of the Moon is Illuminated
Feb 27
Waning Crescent
Mar 1
New
Mar 8
First Quarter
Mar 16
Full
Mar 23
Last Quarter

Hourly Weather History & Observations

Time (EST) Temp. Windchill Dew Point Humidity Pressure Visibility Wind Dir Wind Speed Gust Speed Precip Events Conditions
12:53 AM 16.0 °F 6.3 °F 3.0 °F 57% 29.80 in 10.0 mi South 6.9 mph - N/A   Overcast
1:53 AM 16.0 °F 4.4 °F 3.0 °F 57% 29.77 in 10.0 mi South 9.2 mph - N/A   Mostly Cloudy
2:53 AM 16.0 °F 2.3 °F 3.0 °F 57% 29.74 in 10.0 mi SSW 12.7 mph - N/A   Clear
3:53 AM 17.1 °F 4.3 °F 3.0 °F 54% 29.71 in 10.0 mi SW 11.5 mph 19.6 mph N/A   Overcast
4:53 AM 17.1 °F 3.0 °F 1.0 °F 50% 29.70 in 10.0 mi SW 13.8 mph 24.2 mph N/A   Mostly Cloudy
5:53 AM 16.0 °F 2.9 °F 1.9 °F 54% 29.70 in 10.0 mi SW 11.5 mph - N/A   Mostly Cloudy
6:53 AM 17.1 °F 2.5 °F 1.9 °F 52% 29.68 in 10.0 mi SW 15.0 mph 23.0 mph N/A   Overcast
7:53 AM 18.0 °F 2.2 °F 3.9 °F 54% 29.69 in 10.0 mi SW 18.4 mph 31.1 mph N/A   Overcast
8:53 AM 19.0 °F 4.0 °F 3.9 °F 52% 29.70 in 10.0 mi WSW 17.3 mph 27.6 mph N/A   Overcast
9:53 AM 21.9 °F 7.3 °F 7.0 °F 53% 29.70 in 10.0 mi WSW 18.4 mph 27.6 mph N/A   Overcast
10:53 AM 21.9 °F 5.5 °F 6.1 °F 51% 29.71 in 6.0 mi WSW 24.2 mph 38.0 mph 0.00 in Snow Light Snow
10:58 AM 21.2 °F 5.6 °F 6.8 °F 54% 29.65 in 2.0 mi WSW 20.7 mph 42.6 mph 0.00 in Snow Light Snow
11:41 AM 19.4 °F 5.5 °F 14.0 °F 80% 29.69 in 2.0 mi WNW 15.0 mph 28.8 mph 0.00 in Snow Light Snow
11:53 AM 21.0 °F 4.6 °F 12.9 °F 71% 29.76 in 1.0 mi West 23.0 mph 28.8 mph 0.00 in Snow Light Snow
11:58 AM 21.2 °F 6.8 °F 10.4 °F 63% 29.69 in 7.0 mi West 17.3 mph 31.1 mph 0.00 in Snow Light Snow
12:16 PM 23.0 °F 8.7 °F 10.4 °F 59% 29.70 in 10.0 mi West 18.4 mph 31.1 mph 0.01 in   Scattered Clouds
12:47 PM 19.4 °F 5.0 °F 8.6 °F 63% 29.71 in 2.5 mi NW 16.1 mph 29.9 mph 0.01 in Snow Light Snow
12:53 PM 21.0 °F 7.6 °F 10.0 °F 63% 29.78 in 1.0 mi WNW 15.0 mph 26.5 mph 0.01 in Snow Light Snow
1:02 PM 21.2 °F 8.9 °F 8.6 °F 58% 29.71 in 4.0 mi NW 12.7 mph 24.2 mph 0.00 in Snow Light Snow
1:53 PM 19.0 °F 5.6 °F 10.0 °F 68% 29.83 in 2.0 mi NW 13.8 mph 27.6 mph 0.00 in Snow Light Snow
2:00 PM 19.4 °F 6.6 °F 10.4 °F 68% 29.76 in 0.8 mi NW 12.7 mph 25.3 mph 0.00 in Snow Light Snow
2:04 PM 19.4 °F 5.5 °F 8.6 °F 63% 29.76 in 2.0 mi WNW 15.0 mph 25.3 mph 0.00 in Snow Light Snow
2:17 PM 21.2 °F 4.2 °F 5.0 °F 50% 29.76 in 5.0 mi West 25.3 mph 35.7 mph 0.00 in Snow Light Snow
2:26 PM 23.0 °F 8.3 °F 5.0 °F 46% 29.77 in 10.0 mi West 19.6 mph 36.8 mph 0.00 in   Mostly Cloudy
2:53 PM 19.9 °F 7.3 °F -0.0 °F 42% 29.88 in 10.0 mi NW 12.7 mph 31.1 mph 0.00 in   Overcast
3:53 PM 17.1 °F 2.0 °F 3.0 °F 54% 29.94 in 10.0 mi NW 16.1 mph 32.2 mph N/A   Overcast
4:19 PM 15.8 °F -1.1 °F 5.0 °F 62% 29.89 in 1.5 mi NW 19.6 mph 29.9 mph 0.00 in Snow Light Snow
4:28 PM 14.0 °F -2.5 °F 6.8 °F 73% 29.90 in 0.5 mi NW 17.3 mph 31.1 mph 0.00 in Snow Snow
4:40 PM 12.2 °F -6.3 °F 3.2 °F 67% 29.92 in 1.0 mi NNW 20.7 mph 27.6 mph 0.00 in Snow Light Snow
4:44 PM 12.2 °F -4.8 °F 3.2 °F 67% 29.91 in 3.0 mi NW 17.3 mph 27.6 mph 0.00 in Snow Light Snow
4:53 PM 12.9 °F -1.6 °F 1.9 °F 62% 30.00 in 10.0 mi NNW 12.7 mph 28.8 mph 0.00 in   Scattered Clouds
5:00 PM 14.0 °F -0.8 °F 1.4 °F 57% 29.92 in 10.0 mi NW 13.8 mph 24.2 mph N/A   Mostly Cloudy
5:09 PM 14.0 °F 0.5 °F 1.4 °F 57% 29.93 in 10.0 mi NW 11.5 mph 20.7 mph N/A   Partly Cloudy
5:53 PM 14.0 °F -0.2 °F -0.9 °F 52% 30.05 in 10.0 mi NNW 12.7 mph 21.9 mph N/A   Partly Cloudy
6:53 PM 12.0 °F -2.0 °F -6.0 °F 44% 30.09 in 10.0 mi NNW 11.5 mph 24.2 mph N/A   Clear
7:53 PM 10.9 °F -5.9 °F -6.0 °F 47% 30.12 in 10.0 mi NW 16.1 mph 23.0 mph N/A   Clear
8:53 PM 9.0 °F -7.9 °F -6.0 °F 51% 30.14 in 10.0 mi NNW 15.0 mph 19.6 mph N/A   Clear
9:53 PM 8.1 °F -5.3 °F -5.1 °F 55% 30.17 in 10.0 mi NNW 9.2 mph 16.1 mph N/A   Clear
10:53 PM 8.1 °F -4.3 °F -6.0 °F 53% 30.19 in 10.0 mi NNW 8.1 mph - N/A   Clear
11:53 PM 7.0 °F -3.3 °F -5.1 °F 58% 30.20 in 10.0 mi NNW 5.8 mph - N/A   Clear